Location: The Rolnick Observatory
(41.1711°N, 73.3275°W)
Time: 18:08:31
(UTC-04:00)

N. Korean satellite - Pass Details

Date: 24 February 2019
Orbit: 456 x 510 km, 97.2° (Epoch: 24 March)

Event Time Altitude Azimuth Distance (km) Brightness Sun altitude
Rises 05:46:54 0° 18° (NNE) 2,493 10.4 -9.9°
Reaches altitude 10° 05:49:01 10° 24° (NNE) 1,609 9.5 -9.5°
Maximum altitude 05:52:21 46° 99° (E) 623 7.7 -8.9°
Drops below altitude 10° 05:55:38 10° 174° (S) 1,589 9.3 -8.3°
Sets 05:57:42 0° 180° (S) 2,459 10.2 -7.9°
